Location: Hawks Ness
(60.2333°N, 1.1667°W)
Time: 10:21:22
(UTC+00:00)

NOSS 0 Rocket - Pass Details

Date: 22 October 2019
Orbit: 934 x 956 km, 70.0° (Epoch: 21 November)

Event Time Altitude Azimuth Distance (km) Brightness Sun altitude
Exits shadow 05:34:02 - 240° (WSW) 2,737 5.8 -11.4°
Reaches altitude 10° 05:34:15 10° 240° (WSW) 2,660 5.8 -11.4°
Maximum altitude 05:40:23 63° 322° (NW) 1,054 4.0 -10.6°
Drops below altitude 10° 05:46:35 10° 44° (NE) 2,687 6.9 -9.8°
Sets 05:49:10 0° 47° (NE) 3,637 7.7 -9.5°
